Wind_Gust
20 19 21 20 19 18 19 19 19 17 13 11 14 13 14 11 10 11 10 10 9 11 9 9 8 9 9 8 7 9 8 9 8 7 10 12 10 11 12 9 7 10
20 19 18 18 17 15 16 18 22 19 15 13 12 12 10 12 10 12 12 11 10 10 9 9 9 10 10 10 8 10 9 9 9 5 12 10 9 10 11 9 9 7
19 19 21 20 20 18 18 18 20 17 15 13 12 12 12 11 12 10 12 12 11 10 10 10 10 10 10 9 8 9 10 9 10 6 10 10 9 11 9 9 9 8
20 21 21 19 19 19 18 18 15 13 13 14 14 14 14 12 13 12 11 12 12 10 10 10 11 10 10 9 9 9 8 8 8 9 10 8 8 10 9 9 9 8
20 20 19 19 17 18 18 19 18 16 16 16 13 13 15 15 14 13 12 10 11 11 10 11 9 10 10 10 9 10 8 10 6 8 11 9 7 10 7 10 10 9
19 20 20 19 19 20 20 19 19 18 17 16 17 15 15 15 15 14 13 13 10 12 11 10 10 9 10 10 10 10 10 10 8 9 11 11 8 6 8 8 10 9
21 21 20 20 19 19 20 18 17 17 18 18 15 15 16 16 15 14 14 13 12 12 13 12 11 10 9 11 10 10 9 9 8 10 12 9 9 8 6 7 8 8
22 20 21 20 20 20 19 19 17 18 17 16 17 16 17 17 16 14 13 13 13 12 12 12 11 11 10 11 12 11 9 9 10 10 11 9 8 9 7 7 8 10
23 22 22 22 22 20 20 20 19 17 18 20 18 17 15 17 17 15 14 14 13 13 13 12 12 11 10 11 12 12 12 9 9 10 11 11 11 10 10 9 9 10
23 23 24 23 23 22 21 19 20 19 18 19 18 17 18 14 15 16 15 14 14 13 13 12 12 11 11 10 12 12 12 11 9 9 10 10 11 11 10 10 11 10
22 23 24 24 23 21 22 21 20 19 18 19 18 18 16 16 14 14 15 14 16 15 13 13 13 12 11 10 9 10 11 12 10 10 10 11 11 11 10 10 9 10
24 23 25 25 24 22 23 23 22 20 19 17 19 19 16 16 18 15 16 15 14 14 14 13 12 12 12 12 11 11 12 11 11 10 10 11 10 9 10 8 9 10
25 25 26 24 24 23 23 22 22 21 21 19 18 19 19 17 16 16 14 15 14 14 14 13 12 11 12 12 11 12 12 12 10 10 10 10 9 9 7 8 10 10
25 23 24 25 22 23 24 22 21 21 21 20 19 19 19 19 19 18 15 14 15 14 13 13 13 12 11 11 12 13 13 11 11 12 11 10 8 7 8 10 10 10
22 22 22 23 24 23 23 23 22 21 21 21 20 19 18 19 17 16 16 14 13 14 13 12 14 14 13 13 13 12 12 12 11 12 12 12 9 8 8 10 9 9
24 22 22 23 24 24 25 23 23 23 22 21 21 20 18 18 17 16 16 17 16 14 13 13 13 12 13 15 13 14 11 11 11 11 11 12 11 10 8 8 9 8
24 24 24 24 24 24 22 24 24 24 23 21 20 19 20 19 19 18 17 16 17 17 15 13 13 12 16 16 16 16 14 12 13 11 10 11 12 12 11 9 6 7
25 24 24 24 24 26 26 25 24 23 22 22 21 19 19 18 19 20 18 16 16 15 15 15 13 12 18 18 17 17 14 15 12 13 11 11 11 12 12 10 9 8
24 27 27 25 25 25 25 25 24 22 22 22 24 22 19 21 21 19 18 16 17 17 16 15 13 14 18 19 18 18 17 14 12 12 14 13 13 12 12 11 9 10
25 27 28 28 27 26 24 23 24 26 26 24 23 20 21 19 20 22 18 18 19 18 17 15 14 15 19 19 19 19 17 14 14 14 13 13 12 12 12 12 11 11
28 28 28 27 28 26 25 25 25 25 24 23 23 24 23 23 22 19 19 18 17 17 17 17 17 18 20 20 19 18 19 14 12 12 12 12 12 12 13 13 11 12
27 28 29 27 26 27 30 27 27 26 26 23 22 20 19 20 19 20 21 20 18 18 18 18 15 20 20 20 20 19 19 13 13 13 12 12 11 10 12 13 13 13
27 28 28 28 29 30 28 29 28 26 24 25 23 21 21 20 23 22 20 20 19 19 20 18 15 18 21 21 21 21 15 12 13 12 11 13 13 13 12 11 11 11
26 26 27 26 26 31 31 28 28 27 28 26 26 24 22 23 21 18 17 18 20 20 22 21 18 18 21 23 22 21 18 16 14 14 12 13 12 11 11 11 12 17
27 26 26 27 27 27 28 29 29 28 23 21 23 23 23 21 18 19 17 15 17 19 14 20 18 18 19 20 20 21 20 14 14 13 14 12 12 12 8 10 10 13
24 25 24 25 28 29 26 24 23 23 24 24 19 18 18 17 18 18 20 18 16 16 19 20 20 18 19 20 21 22 20 18 15 15 15 14 13 13 12 8 9 10
Wind_Speed
11 10 11 10 10 10 10 9 7 7 7 6 8 7 8 6 6 6 5 5 5 6 5 5 5 5 4 4 4 4 4 4 4 3 5 6 5 6 7 5 4 5
12 12 10 10 9 8 9 10 12 11 9 8 6 7 5 7 6 6 7 6 5 6 5 5 5 5 5 5 4 6 5 5 5 2 6 6 5 6 6 5 6 4
11 12 13 13 11 11 11 11 12 10 8 7 7 7 7 6 7 5 6 7 6 6 5 5 5 5 5 5 5 5 6 5 6 4 5 6 5 6 5 5 5 5
13 13 12 12 11 12 11 10 9 8 7 7 8 8 8 6 7 7 6 6 7 6 5 5 6 5 5 5 5 5 5 5 4 5 6 4 4 6 5 5 5 5
13 12 11 11 10 11 11 11 11 9 10 9 8 8 8 8 7 7 6 6 6 6 5 5 5 5 5 5 5 6 4 6 4 5 6 5 3 5 4 6 6 6
11 11 11 11 11 12 11 12 12 11 10 9 10 8 8 8 8 8 7 7 6 7 6 5 5 4 5 5 5 5 6 6 5 5 6 6 4 3 4 5 6 6
13 12 13 11 11 12 12 11 10 10 11 10 9 9 9 9 8 8 7 7 7 7 7 7 6 6 4 5 5 5 4 5 5 5 7 5 5 4 4 5 5 5
14 12 12 11 12 12 11 11 10 10 10 9 10 9 9 9 9 7 7 8 7 7 7 6 6 6 5 5 6 6 5 4 6 6 6 5 5 5 4 4 5 6
13 13 13 13 13 11 12 11 11 11 11 11 10 9 8 9 9 8 8 8 7 7 7 6 7 6 5 6 6 7 7 5 5 6 7 7 6 6 5 4 5 5
13 13 14 14 13 11 13 12 11 11 11 11 10 9 9 7 8 9 8 8 8 7 7 7 6 6 6 5 7 7 7 7 5 5 6 6 6 6 5 5 6 6
14 14 14 15 15 12 13 12 12 11 10 11 10 9 9 8 7 7 8 8 8 8 7 7 7 7 7 5 5 5 7 7 6 6 5 5 5 6 6 6 6 6
15 14 15 15 15 13 14 13 11 11 11 9 11 11 9 9 10 8 8 8 8 8 8 8 7 7 7 7 7 6 6 6 6 5 5 5 5 5 5 5 6 6
15 15 14 14 14 13 12 11 11 11 12 11 10 11 11 10 8 9 7 8 8 8 8 8 8 7 7 7 7 6 6 6 6 5 5 5 5 5 4 4 5 6
15 14 13 13 12 12 13 12 12 12 12 11 11 11 11 11 11 10 8 7 8 8 8 8 8 7 7 7 7 7 7 6 6 6 6 5 5 4 4 5 5 5
13 12 12 12 13 13 13 12 12 12 12 12 12 11 9 10 10 10 9 8 7 8 8 7 8 8 7 7 8 7 6 7 6 6 6 6 5 4 4 5 5 5
13 12 13 13 13 14 15 14 12 12 12 12 12 12 11 10 10 9 10 11 10 8 8 7 7 6 8 13 10 8 7 6 6 6 6 6 6 5 4 4 5 5
13 13 13 14 14 13 13 14 14 13 13 12 12 11 12 11 11 11 10 10 11 10 9 8 7 7 13 14 14 14 9 7 7 7 6 6 6 6 6 5 4 4
13 13 14 14 14 14 14 14 12 11 12 13 12 12 11 10 12 12 11 10 9 9 9 8 8 10 15 15 14 15 12 9 7 7 6 6 6 6 6 5 5 4
13 14 14 14 14 14 13 13 12 12 12 13 14 13 11 12 10 8 9 9 9 10 9 8 8 12 15 15 15 15 15 11 7 7 8 7 8 8 6 6 5 5
13 14 14 14 13 13 13 13 14 14 14 13 13 12 12 11 13 14 11 11 11 11 10 9 8 12 16 16 15 16 15 11 8 9 8 8 8 7 7 7 6 6
13 14 14 14 14 14 13 14 14 14 14 13 12 13 13 13 13 12 11 11 10 10 9 10 8 14 16 16 15 15 15 12 7 7 7 7 7 7 8 8 7 7
15 14 14 15 15 14 14 14 14 15 16 13 12 11 11 11 11 11 12 12 11 10 10 10 8 16 16 16 16 15 15 8 8 8 7 7 6 6 7 8 7 7
15 16 14 15 15 15 15 15 14 13 13 11 12 11 12 12 12 12 11 11 11 11 11 10 8 14 17 17 17 18 13 7 7 7 7 8 8 8 7 6 6 6
14 15 15 14 15 16 16 16 16 15 15 13 14 12 12 12 12 10 10 10 12 12 12 11 10 13 18 18 17 16 14 10 8 8 7 8 8 7 6 6 6 11
14 13 14 16 16 16 16 17 17 15 12 10 10 11 11 10 8 10 9 8 10 10 9 11 10 12 16 17 17 17 13 8 8 8 8 7 7 7 5 6 5 8
12 13 11 13 16 15 11 10 8 7 6 9 8 8 9 10 11 10 11 10 9 9 10 11 11 10 13 17 18 18 17 10 8 9 9 8 7 7 7 5 5 6
Wind_Direction
173 173 171 170 171 171 168 166 166 174 179 167 169 171 172 164 162 162 158 153 154 146 143 138 134 132 127 117 115 105 106 111 99 109 113 116 118 124 119 117 105 116
177 172 169 167 168 167 166 164 173 185 179 173 166 155 156 155 168 159 157 155 152 147 141 138 139 136 135 130 129 122 114 115 111 115 121 114 118 109 114 116 112 113
173 174 173 173 171 166 166 170 174 181 175 168 151 154 157 162 157 163 157 154 148 144 142 140 135 136 135 132 131 126 129 124 120 118 112 117 120 114 118 117 106 109
179 177 174 171 166 165 165 164 169 164 150 151 166 164 160 162 158 156 156 151 143 143 141 139 141 138 135 132 123 116 123 119 128 124 109 97 110 119 124 118 113 99
177 174 171 168 165 162 162 167 168 168 166 164 154 157 157 158 159 157 152 146 143 141 143 141 137 138 134 129 128 123 124 121 120 120 117 116 128 125 134 120 117 108
175 173 171 168 165 162 168 173 172 167 163 159 167 162 164 161 161 160 157 150 149 146 146 143 140 137 137 132 127 131 132 125 129 124 122 130 132 114 122 119 117 116
175 173 172 166 165 170 170 170 168 167 170 169 155 166 161 164 165 164 158 154 151 154 154 152 145 142 140 137 133 130 125 129 131 133 129 135 129 115 106 118 120 120
173 172 168 166 168 170 169 166 166 169 168 161 168 166 166 166 164 161 157 154 154 155 154 151 150 147 148 142 138 133 131 136 138 139 136 138 132 136 131 126 128 128
170 172 169 167 169 171 172 169 168 168 168 167 168 164 168 166 163 161 160 157 156 157 153 153 154 151 152 148 147 149 147 148 152 150 149 149 150 151 150 138 131 136
175 172 170 168 172 174 173 171 168 169 169 169 165 161 165 166 163 161 158 160 158 157 157 155 151 149 150 155 155 154 152 154 158 159 157 157 155 153 150 148 147 138
176 174 174 172 171 172 174 171 170 167 169 167 158 163 163 158 163 160 158 161 163 162 159 158 158 155 153 153 155 158 157 158 164 163 159 157 155 154 155 151 150 149
177 177 178 176 171 169 171 172 169 166 166 165 164 163 162 166 163 165 166 167 165 165 161 161 159 158 157 159 162 162 159 161 160 157 158 156 157 163 158 155 150 150
179 181 178 174 171 167 166 169 168 165 165 166 168 165 164 165 167 164 170 166 165 160 163 161 159 157 157 161 163 163 162 160 157 155 155 156 165 165 151 141 146 148
181 176 174 173 169 164 165 168 167 168 170 167 164 166 168 167 166 168 166 165 163 164 164 159 158 159 161 164 165 166 164 162 159 157 154 157 160 147 140 146 150 152
175 173 171 169 167 164 163 167 170 172 170 167 168 168 168 168 165 163 159 159 160 161 160 162 163 166 166 166 167 170 162 159 160 156 155 155 149 143 142 143 150 157
173 171 170 167 168 170 165 167 171 173 171 169 168 168 166 165 166 167 165 164 163 165 163 165 171 168 173 171 169 164 163 158 157 159 158 153 149 144 149 158 159 163
171 170 167 169 170 167 166 168 174 173 170 168 167 168 168 169 168 167 170 167 167 166 168 171 173 176 173 171 169 163 158 160 162 163 156 148 149 155 162 171 176 176
171 168 168 168 167 170 168 169 170 170 169 167 168 173 175 169 172 173 168 168 167 167 170 174 176 179 170 171 168 165 162 160 160 156 154 152 145 157 169 170 173 176
168 168 168 167 170 168 167 165 168 171 173 172 175 177 170 174 161 152 172 169 168 169 176 177 178 178 171 169 167 166 164 156 154 149 151 158 164 175 172 168 169 166
169 168 167 167 165 166 167 168 168 176 179 180 176 171 170 160 166 178 169 172 175 176 176 179 179 176 171 169 170 168 161 150 155 164 169 162 169 174 171 169 170 168
169 170 166 164 165 166 168 171 177 180 181 181 176 172 169 169 174 170 174 174 178 175 173 178 186 171 172 172 169 163 163 160 159 158 160 166 174 175 173 173 176 174
168 171 169 166 165 166 170 177 182 184 184 181 176 171 168 169 175 170 171 176 175 172 173 181 178 172 172 169 166 167 164 155 154 161 163 168 173 182 183 184 178 175
169 169 170 166 165 168 175 177 184 189 186 177 175 167 162 171 175 176 174 173 172 175 177 177 171 177 172 167 171 168 158 155 162 162 168 170 182 188 188 181 184 183
170 170 167 166 166 176 182 187 187 186 185 180 173 163 170 181 172 166 168 171 172 177 179 173 177 174 173 174 172 163 162 163 166 166 174 178 183 191 185 181 191 196
167 169 169 165 170 184 189 190 189 188 182 170 165 165 170 154 150 166 167 166 173 173 166 169 170 172 176 172 164 171 171 165 161 166 172 187 180 187 182 178 203 208
161 160 162 166 173 186 188 187 183 171 133 119 130 153 144 159 169 172 172 169 160 166 178 174 163 169 179 177 171 177 175 164 167 163 179 185 188 182 179 195 205 210